Terminal Aerodrome Forecast
Issued by NWS Denver/Boulder, CO

Home | Current Version | Previous Version | Text Only | Print | Product List | Glossary On
Versions: 1 2 3 4 5 6 7 8 9 10 11 12 13 14 15 16 17 18 19 20 21 22 23 24 25 26 27 28 29 30 31 32 33 34 35 36 37 38 39 40 41 42 43 44 45 46 47 48 49 50
000
FTUS45 KBOU 300205 AAA
TAFDEN
TAF AMD
KDEN 300205Z 3002/0106 35009KT P6SM FEW090 SCT140 BKN220
     FM300300 04008KT P6SM FEW140 SCT220
     FM300600 20007KT P6SM SCT220
     FM301500 24006KT P6SM FEW250
     FM301800 03007KT P6SM FEW150 SCT220
     FM302300 28011KT P6SM FEW080 SCT130 BKN220
     FM010300 34014KT P6SM VCTS SCT080CB BKN120=

USA.gov is the U.S. government's official web portal to all federal, state and local government web resources and services.